New Iberia, LA

11:38 PM CST on December 12, 2017 (GMT -0600)
Acadiana Regional

Weather History for KARA - October, 2012

Change the Weather History Date:

Wednesday, October 17, 2012

  Actual Average Record
Temperature  
Mean Temperature 75 °F 70 °F  
Max Temperature 85 °F 81 °F 91 °F (2006)
Min Temperature 64 °F 58 °F 42 °F (1977)
Degree Days  
Heating Degree Days 0 1  
Month to date heating degree days 5 6  
Since 1 July heating degree days 5 7  
Cooling Degree Days 10 6  
Month to date cooling degree days 128 128  
Year to date cooling degree days 3130 2684  
Growing Degree Days 24 (Base 50)    
Moisture  
Dew Point 68 °F    
Average Humidity 75    
Maximum Humidity 94    
Minimum Humidity 55    
Precipitation  
Precipitation 0.00 in 0.18 in 3.80 in (1984)
Month to date precipitation 0.29 3.28  
Year to date precipitation 46.37 48.76  
Sea Level Pressure  
Sea Level Pressure 29.79 in    
Wind  
Wind Speed 8 mph (South)    
Max Wind Speed 21 mph    
Max Gust Speed 25 mph    
Visibility 10 miles    
Events Rain    
T = Trace of Precipitation, MM = Missing Value Source: NWS Daily Summary

Daily Weather History Graph

Daily Weather History Graph

Search for Another Location

Airport or City:

Trip Planner

Search our weather history database for the weather conditions in past years. The results will help you decide how hot, cold, wet, or windy it might be!

Date:

Astronomy

Oct. 17, 2012 Rise Set
Actual Time 7:11 AM CDT 6:33 PM CDT
Civil Twilight 6:46 AM CDT 6:58 PM CDT
Nautical Twilight 6:19 AM CDT 7:25 PM CDT
Astronomical Twilight 5:51 AM CDT 7:53 PM CDT
Moon 9:33 AM CDT (10/17) 8:23 PM CDT (10/17)
Length of Visible Light 12h 11m
Length of Day
11h 22m
Waxing Crescent, 7% of the Moon is Illuminated
Oct 17
Waxing Crescent
Oct 21
First Quarter
Oct 29
Full
Nov 6
Last Quarter
Nov 13
New

Hourly Weather History & Observations

Time (CDT) Temp. Heat Index Dew Point Humidity Pressure Visibility Wind Dir Wind Speed Gust Speed Precip Events Conditions
12:53 AM 71.1 °F - 64.9 °F 81% 29.85 in 10.0 mi ENE 5.8 mph - 0.00 in Rain Light Rain
1:29 AM 69.8 °F - 64.4 °F 83% 29.83 in 10.0 mi ESE 5.8 mph - 0.00 in   Mostly Cloudy
1:37 AM 69.8 °F - 64.4 °F 83% 29.83 in 10.0 mi ESE 4.6 mph - 0.00 in   Overcast
1:53 AM 69.1 °F - 64.9 °F 87% 29.83 in 10.0 mi SSE 4.6 mph - 0.00 in   Overcast
2:53 AM 69.1 °F - 64.9 °F 87% 29.82 in 10.0 mi SSE 3.5 mph - N/A   Mostly Cloudy
3:53 AM 66.9 °F - 64.0 °F 90% 29.81 in 10.0 mi Calm Calm - N/A   Partly Cloudy
4:53 AM 64.9 °F - 63.0 °F 93% 29.81 in 10.0 mi Calm Calm - N/A   Clear
5:53 AM 64.0 °F - 62.1 °F 93% 29.82 in 8.0 mi East 5.8 mph - N/A   Clear
6:53 AM 64.9 °F - 63.0 °F 93% 29.83 in 9.0 mi East 3.5 mph - N/A   Clear
7:53 AM 68.0 °F - 64.9 °F 90% 29.84 in 8.0 mi Calm Calm - N/A   Mostly Cloudy
8:53 AM 73.0 °F - 68.0 °F 84% 29.85 in 10.0 mi SE 5.8 mph - N/A   Mostly Cloudy
9:53 AM 77.0 °F - 69.1 °F 76% 29.85 in 10.0 mi SE 6.9 mph - N/A   Overcast
10:53 AM 82.0 °F 84.5 °F 66.9 °F 60% 29.83 in 10.0 mi South 13.8 mph - N/A   Partly Cloudy
11:53 AM 84.0 °F 86.5 °F 66.9 °F 56% 29.81 in 10.0 mi South 16.1 mph 20.7 mph N/A   Scattered Clouds
12:36 PM 82.4 °F 86.3 °F 69.8 °F 66% 29.81 in 10.0 mi SSW 17.3 mph - N/A   Mostly Cloudy
12:48 PM 84.2 °F 88.4 °F 69.8 °F 62% 29.80 in 10.0 mi South 12.7 mph 20.7 mph N/A   Mostly Cloudy
12:53 PM 82.9 °F 87.0 °F 70.0 °F 65% 29.79 in 10.0 mi SSW 11.5 mph - N/A   Mostly Cloudy
1:03 PM 84.2 °F 88.4 °F 69.8 °F 62% 29.79 in 10.0 mi South 16.1 mph 21.9 mph N/A   Mostly Cloudy
1:53 PM 84.9 °F 89.4 °F 70.0 °F 61% 29.76 in 10.0 mi South 11.5 mph - N/A   Mostly Cloudy
2:53 PM 84.0 °F 88.4 °F 70.0 °F 63% 29.74 in 10.0 mi South 17.3 mph - N/A   Mostly Cloudy
3:44 PM 82.4 °F 86.3 °F 69.8 °F 66% 29.73 in 10.0 mi South 17.3 mph - N/A   Mostly Cloudy
3:53 PM 82.9 °F 87.0 °F 70.0 °F 65% 29.73 in 10.0 mi South 13.8 mph 21.9 mph N/A   Mostly Cloudy
4:03 PM 84.2 °F 89.6 °F 71.6 °F 66% 29.73 in 10.0 mi South 13.8 mph 24.2 mph N/A   Mostly Cloudy
4:32 PM 82.4 °F 87.2 °F 71.6 °F 70% 29.73 in 10.0 mi SSW 15.0 mph 25.3 mph N/A   Mostly Cloudy
4:53 PM 82.9 °F 87.5 °F 71.1 °F 67% 29.72 in 10.0 mi South 13.8 mph 21.9 mph N/A   Partly Cloudy
5:53 PM 81.0 °F 84.9 °F 71.1 °F 72% 29.72 in 10.0 mi SSW 13.8 mph - N/A   Scattered Clouds
6:53 PM 79.0 °F - 72.0 °F 79% 29.73 in 10.0 mi SSW 9.2 mph - N/A   Clear
7:53 PM 78.1 °F - 72.0 °F 81% 29.73 in 10.0 mi South 6.9 mph - N/A   Clear
8:53 PM 77.0 °F - 72.0 °F 84% 29.74 in 10.0 mi South 6.9 mph - N/A   Clear
9:53 PM 75.9 °F - 73.0 °F 91% 29.75 in 10.0 mi South 6.9 mph - N/A   Clear
10:53 PM 77.0 °F - 73.0 °F 88% 29.77 in 10.0 mi SSW 4.6 mph - N/A   Scattered Clouds
11:53 PM 77.0 °F - 73.9 °F 90% 29.76 in 10.0 mi SSW 5.8 mph - N/A   Scattered Clouds